New Bern, NC

3:53 AM EST on January 23, 2018 (GMT -0500)
Craven County Regional

Weather History for KEWN - February, 2012

Change the Weather History Date:

Friday, February 10, 2012

  Actual Average Record
Temperature  
Mean Temperature 41 °F 46 °F  
Max Temperature 53 °F 57 °F 80 °F (1959)
Min Temperature 28 °F 36 °F 12 °F (1979)
Degree Days  
Heating Degree Days 24 19  
Month to date heating degree days 165 194  
Since 1 July heating degree days 1500 1834  
Cooling Degree Days 0 0  
Month to date cooling degree days 0 0  
Year to date cooling degree days 0 1  
Moisture  
Dew Point 38 °F    
Average Humidity 80    
Maximum Humidity 100    
Minimum Humidity 59    
Precipitation  
Precipitation 0.14 in 0.12 in 1.83 in (1973)
Month to date precipitation 0.76 1.24  
Year to date precipitation 3.19 5.26  
Snow  
Snow 0.00 in - - ()
Month to date snowfall 0.0  
Since 1 July snowfall 0.0  
Snow Depth 0.00 in    
Sea Level Pressure  
Sea Level Pressure 30.11 in    
Wind  
Wind Speed 1 mph (ENE)    
Max Wind Speed 7 mph    
Max Gust Speed 10 mph    
Visibility 8 miles    
Events Rain    
T = Trace of Precipitation, MM = Missing Value Source: NWS Daily Summary

Daily Weather History Graph

Daily Weather History Graph

Search for Another Location

Airport or City:

Trip Planner

Search our weather history database for the weather conditions in past years. The results will help you decide how hot, cold, wet, or windy it might be!

Date:

Astronomy

Feb. 10, 2012 Rise Set
Actual Time 6:59 AM EST 5:45 PM EST
Civil Twilight 6:33 AM EST 6:11 PM EST
Nautical Twilight 6:03 AM EST 6:41 PM EST
Astronomical Twilight 5:34 AM EST 7:11 PM EST
Moon 9:09 PM EST (2/10) 8:17 AM EST (2/10)
Length of Visible Light 11h 37m
Length of Day
10h 45m
Waning Gibbous, 90% of the Moon is Illuminated
Feb 10
Waning Gibbous
Feb 14
Last Quarter
Feb 21
New
Feb 29
First Quarter
Mar 8
Full

Hourly Weather History & Observations

Time (EST) Temp. Dew Point Humidity Pressure Visibility Wind Dir Wind Speed Gust Speed Precip Events Conditions
12:54 AM 30.9 °F 28.0 °F 89% 30.27 in 10.0 mi Calm Calm - N/A   Clear
1:54 AM 30.0 °F 27.0 °F 88% 30.26 in 10.0 mi Calm Calm - N/A   Clear
2:54 AM 30.9 °F 28.0 °F 89% 30.25 in 9.0 mi Calm Calm - N/A   Clear
3:54 AM 30.9 °F 28.0 °F 89% 30.25 in 9.0 mi Calm Calm - N/A   Clear
4:54 AM 30.0 °F 28.0 °F 92% 30.23 in 10.0 mi Calm Calm - N/A   Clear
5:54 AM 30.9 °F 27.0 °F 85% 30.22 in 9.0 mi Calm Calm - N/A   Clear
6:54 AM 28.9 °F 27.0 °F 92% 30.22 in 6.0 mi Calm Calm - N/A   Clear
7:54 AM 30.9 °F 28.9 °F 92% 30.22 in 8.0 mi Calm Calm - N/A   Clear
8:54 AM 39.9 °F 39.0 °F 97% 30.23 in 7.0 mi Calm Calm - N/A   Clear
9:54 AM 48.9 °F 39.9 °F 71% 30.23 in 10.0 mi Calm Calm - N/A   Clear
10:54 AM 51.1 °F 37.9 °F 61% 30.20 in 10.0 mi ENE 5.8 mph - N/A   Clear
11:54 AM 53.1 °F 39.0 °F 59% 30.17 in 10.0 mi Calm Calm - N/A   Partly Cloudy
12:54 PM 52.0 °F 37.9 °F 59% 30.14 in 10.0 mi Calm Calm - N/A   Overcast
1:54 PM 53.1 °F 39.0 °F 59% 30.08 in 10.0 mi Variable 3.5 mph - N/A   Overcast
2:54 PM 53.1 °F 39.9 °F 61% 30.06 in 10.0 mi Calm Calm - N/A   Overcast
3:54 PM 53.1 °F 42.1 °F 66% 30.05 in 10.0 mi Calm Calm - 0.00 in Rain Light Rain
4:54 PM 51.1 °F 42.1 °F 71% 30.04 in 10.0 mi Calm Calm - 0.00 in   Overcast
5:54 PM 48.9 °F 45.0 °F 86% 30.04 in 5.0 mi Calm Calm - 0.01 in Rain Light Rain
6:50 PM 48.2 °F 44.6 °F 87% 30.03 in 7.0 mi ENE 3.5 mph - 0.03 in Rain Light Rain
6:54 PM 48.0 °F 45.0 °F 89% 30.02 in 7.0 mi East 4.6 mph - 0.03 in Rain Light Rain
7:11 PM 48.2 °F 44.6 °F 87% 30.02 in 9.0 mi Calm Calm - 0.00 in   Overcast
7:28 PM 48.2 °F 44.6 °F 87% 30.02 in 7.0 mi NE 3.5 mph - 0.01 in Rain Light Rain
7:54 PM 46.9 °F 45.0 °F 93% 30.01 in 3.0 mi NNE 4.6 mph - 0.04 in Rain Heavy Rain
8:54 PM 46.9 °F 45.0 °F 93% 30.00 in 7.0 mi Calm Calm - 0.06 in Rain Light Rain
9:54 PM 46.9 °F 45.0 °F 93% 29.97 in 7.0 mi Calm Calm - 0.00 in   Overcast
10:54 PM 46.9 °F 45.0 °F 93% 29.93 in 7.0 mi East 3.5 mph - N/A   Overcast
11:54 PM 46.9 °F 45.0 °F 93% 29.90 in 8.0 mi Calm Calm - N/A   Overcast